Regional Weather Roundup
Issued by NWS

Home | Current Version | Previous Version | Text Only | Print | Product List | Glossary On
Versions: 1 2 3 4 5 6 7 8 9 10 11 12 13 14 15 16 17 18 19 20 21 22 23 24 25 26 27 28 29 30 31 32 33 34 35 36 37 38 39 40 41 42 43 44 45 46 47 48 49 50
000
ASUS43 KMPX 301601
RWRMN
WEATHER ROUNDUP FOR MINNESOTA
NATIONAL WEATHER SERVICE TWIN CITIES/CHANHASSEN MN
1100 AM CDT THU OCT 30 2014


NOTE: "FAIR" INDICATES FEW OR NO CLOUDS BELOW 12,000 FEET WITH NO
SIGNIFICANT WEATHER AND/OR OBSTRUCTIONS TO VISIBILITY. N/A MEANS
CURRENT SKY AND/OR WEATHER CONDITIONS ARE NOT AVAILABLE.

MNZ060>063-068>070-301700-
   Twin Cities Metro

CITY           SKY/WX    TMP DP  RH WIND       PRES   REMARKS
TWIN CITIES    CLOUDY    42  35  76 VRB3      30.09R
ST PAUL        CLOUDY    42  35  76 CALM      30.10R
CRYSTAL        CLOUDY    44  36  73 N3        30.08R
BLAINE         PTSUNNY   45  39  81 N3        30.08
LAKEVILLE      CLOUDY    39  36  87 CALM      30.08R
EDEN PRAIRIE   CLOUDY    43  36  76 N3        30.08R
SOUTH ST PAUL  CLOUDY    42  35  76 CALM      30.09R
LAKE ELMO      CLOUDY    43  36  75 CALM      30.09R
$$
MNZ001>005-007-008-013>017-022>024-027-028-301700-
   Northwest Minnesota

CITY           SKY/WX    TMP DP  RH WIND       PRES   REMARKS
BEMIDJI        CLOUDY    36  31  82 N9        30.15R
HALLOCK        PTSUNNY   36  30  80 N18G26    30.28R
ROSEAU         CLOUDY    37  32  81 NW21      30.20R
WARROAD        LGT SNOW  36  32  87 NW14      30.20R
THIEF RVR FALL CLOUDY    36  30  80 NW15      30.22R
CROOKSTON      CLOUDY    36  34  93 N16       30.25R
FOSSTON        CLOUDY    34  30  86 N13G18    30.19R WCI  25
DETROIT LAKES  CLOUDY    39  36  87 N7        30.17R
MOORHEAD       PTSUNNY   39  39 100 N20G25    30.21R
PARK RAPIDS    CLOUDY    37  34  89 N9        30.13R
MAHNOMEN       CLOUDY    36  33  86 N16       30.17R
$$
MNZ006-009>011-018-025>026-301700-
   North Central Minnesota

CITY           SKY/WX    TMP DP  RH WIND       PRES   REMARKS
BAUDETTE       LGT RAIN  36  33  89 N9        30.15R
FLAG ISLAND    CLOUDY    36  30  80 NW22      30.16R
INTL FALLS     CLOUDY    37  35  92 NW13      30.11R
WASKISH        CLOUDY    36  34  93 NW12      30.15R
BIG FORK       CLOUDY    37  32  81 NW5       30.12R
LONGVILLE      CLOUDY    37  36  93 N3        30.12R
GRAND RAPIDS   CLOUDY    37  30  75 N13       30.11R
CRANE LAKE     LGT RAIN  36  34  93 CALM      30.10R
ORR            CLOUDY    36  32  87 NW7       30.07R
COOK           CLOUDY    36  34  93 NW7       30.09R
WALKER         CLOUDY    37  32  80 N7        30.13R
$$
MNZ012-019>021-037-301700-
   Northeast Minnesota

CITY           SKY/WX    TMP DP  RH WIND       PRES   REMARKS
DULUTH         PTSUNNY   38  30  73 NW12      30.06S
ELY            CLOUDY    36  34  93 NW6       30.06R
HIBBING        CLOUDY    38  31  76 NW13      30.09R
EVELETH        CLOUDY    36  34  93 NW8       30.09R
DULUTH HARBOR  CLOUDY    41  36  81 W7        30.10S
TWO HARBORS    CLOUDY    41 N/A N/A NW3       30.05S
SILVER BAY     CLOUDY    43  34  70 NW7       30.04R
GRAND MARAIS     N/A     42  34  73 VRB3      30.04R
G MARAIS ARPRT CLOUDY    36  30  80 NW7       30.01S
$$
MNZ029>031-032-039>041-046>048-054>057-064-301700-
   West Central Minnesota

CITY           SKY/WX    TMP DP  RH WIND       PRES   REMARKS
FERGUS FALLS   DRIZZLE   41  37  87 N9        30.16R
WHEATON        CLOUDY    37  37 100 N10       30.17R FOG
MORRIS         MOSUNNY   43  39  87 N9        30.11R
ALEXANDRIA     CLOUDY    41  36  82 N10       30.12R
ELBOW LAKE     CLOUDY    40  39  97 NE9       30.13R FOG
WADENA         CLOUDY    37  36  93 N6        30.13R
GLENWOOD       MOSUNNY   41  37  87 N8        30.11R
APPLETON       PTSUNNY   45  39  81 N8        30.11R
BENSON         CLOUDY    43  39  87 NE8       30.11R
ORTONVILLE     CLOUDY    41  37  87 N9        30.12R
MADISON        PTSUNNY   45  43  93 NW3       30.11R
WILLMAR        FAIR      45  39  81 N8        30.11R
$$
MNZ033>034-036-042>043-049>051-058-059-301700-
   Central Minnesota

CITY           SKY/WX    TMP DP  RH WIND       PRES   REMARKS
ST CLOUD       CLOUDY    43  36  76 N5        30.11R
SAUK CENTRE    CLOUDY    39  36  87 N8        30.11R
PAYNESVILLE    CLOUDY    39  35  87 NW5       30.10R
AITKIN         MIX PCPN  39  34  81 CALM      30.10R
PINE RIVER     LGT RAIN  37  37 100 NW3       30.15R
BRAINERD       LGT RAIN  38  36  92 N6        30.12R FOG
STAPLES        CLOUDY    37  36  93 N7        30.12S
LONG PRAIRIE   CLOUDY    37  36  93 N7        30.12R
LITTLE FALLS   CLOUDY    37  34  87 N3        30.11S
LITCHFIELD     DRIZZLE   43  39  87 N5        30.10R
BUFFALO        CLOUDY    42  36  79 CALM      30.09S
MAPLE LAKE     CLOUDY    42  38  86 N3        30.10R
$$
MNZ037-044-045-052-053-301700-
   East Central Minnesota

CITY           SKY/WX    TMP DP  RH WIND       PRES   REMARKS
PRINCETON      CLOUDY    43  37  81 N5        30.11R
MORA           PTSUNNY   37  32  81 N3        30.11R
CAMBRIDGE      CLOUDY    45  34  65 N5        30.08R
RUSH CITY      CLOUDY    41  34  77 N3        30.10R
MOOSE LAKE     DRIZZLE   37  32  81 CALM      30.08S
HINCKLEY       CLOUDY    39  36  87 CALM      30.10R
CLOQUET        CLOUDY    37  32  81 NW7       30.08S
MCGREGOR       CLOUDY    37  34  87 NW6       30.10S
$$
MNZ071>073-080-081-089-090-097-098-301700-
   Southwest Minnesota

CITY           SKY/WX    TMP DP  RH WIND       PRES   REMARKS
MONTEVIDEO     PTSUNNY   43  43 100 N6        30.11R
GRANITE FALLS  CLOUDY    42  38  88 N7        30.11R
CANBY          CLOUDY    42  39  89 N7        30.11R
MARSHALL       CLOUDY    45  36  70 N10       30.08R
REDWOOD FALLS  CLOUDY    46  39  76 N8        30.08R
OLIVIA         SUNNY     43  36  75 N6        30.08R
PIPESTONE      SUNNY     50  36  57 N9        30.06R
WINDOM         MOSUNNY   48  36  61 N7        30.05R
WORTHINGTON    SUNNY     48  34  57 N13       30.05R
JACKSON        PTSUNNY   46  34  61 NW9       30.05R
TRACY          MOSUNNY   47  40  74 NW10      30.08R
SLAYTON        SUNNY     49  33  54 N15       30.06S
$$
MNZ065>067-074>077-082>085-091>093-301700-
   South Central Minnesota

CITY           SKY/WX    TMP DP  RH WIND       PRES   REMARKS
MANKATO        CLOUDY    45  34  65 SE3       30.06R
NEW ULM          N/A     45  37  76 CALM      30.07R
ST JAMES       PTSUNNY   46  37  71 NW3       30.07R
FAIRMONT       CLOUDY    46  30  53 SE5       30.04R
GLENCOE        PTSUNNY   43  38  83 N3        30.07R
FARIBAULT      DRIZZLE   43  37  81 CALM      30.07R
OWATONNA       CLOUDY    45  36  70 CALM      30.06S
WASECA         CLOUDY    43  32  65 SE3       30.07S
ALBERT LEA     CLOUDY    43  37  81 E3        30.05S
$$
MNZ078>079-086>088-094>096-301700-
   Southeast Minnesota

CITY           SKY/WX    TMP DP  RH WIND       PRES   REMARKS
ROCHESTER      CLOUDY    41  35  79 S5        30.07S
RED WING       CLOUDY    43  34  70 CALM      30.07S
STANTON        LGT RAIN  43  37  78 CALM      30.07R
DODGE CENTER   LGT RAIN  43  37  81 S3        30.06S
WINONA         CLOUDY    41  37  87 CALM      30.09S
AUSTIN         CLOUDY    43  36  75 CALM      30.06S
PRESTON        CLOUDY    40  35  81 CALM      30.07S
$$
ABBREVIATIONS USED IN REMARKS
   TC - TEMPERATURES IN CELSIUS
  WCI - WIND CHILL INDEX
   HX - HEAT INDEX
  VSB - VISIBILITY
$$



USA.gov is the U.S. government's official web portal to all federal, state and local government web resources and services.